User: anonymous   Login
Location: Castro Valley
(37.6940°N, 122.0850°W)
Time: 16:20:09
(UTC-07:00)
Language:

PANSAT - Orbit

View from above orbital plane
View from above orbital plane
View from above satellite
View from above satellite

Ground track
Ground track

The orbit data is extracted from the following two-line orbital elements,

1 25520U 98064B   18109.10109821 +.00000865 +00000-0 +22291-4 0  9991
2 25520 028.4591 060.1031 0005274 155.1987 204.8863 15.28798264080832
Epoch (UTC): 19 April 2018 02:25:34
Eccentricity: 0.0005274
inclination: 28.4591°
perigee height: 476 km
apogee height: 483 km
right ascension of ascending node: 60.1031°
argument of perigee: 155.1987°
revolutions per day: 15.28798264
mean anomaly at epoch: 204.8863°
orbit number at epoch: 8083

The dashed part of the orbit path shows where the satellite is in the earth's shadow,  

DLR